User: anonymous   Login
Location: Unspecified
(0.0000°N, 0.0000°E)
Time: 01:06:54
(UTC+00:00)
Language:

AO-7 - Orbit

View from above orbital plane
View from above orbital plane
View from above satellite
View from above satellite

Ground track
Ground track

The orbit data is extracted from the following two-line orbital elements,

1 07530U 74089B   21340.47288891 -.00000050  00000-0 -24107-4 0  9995
2 07530 101.8797 314.9385 0012498  52.1938  61.0838 12.53651685153282
Epoch (UTC): 06 December 2021 11:20:57
Eccentricity: 0.0012498
inclination: 101.8797°
perigee height: 1439 km
apogee height: 1459 km
right ascension of ascending node: 314.9385°
argument of perigee: 52.1938°
revolutions per day: 12.53651685
mean anomaly at epoch: 61.0838°
orbit number at epoch: 15328

The dashed part of the orbit path shows where the satellite is in the earth's shadow,  

DLR